Location: *
(48.8489°N, 2.3218°E)
Time: 10:52:31
(UTC+00:00)

Lacrosse 4 Rocket - Pass Details

Date: 23 August 2019
Orbit: 543 x 616 km, 68.0° (Epoch: 15 September)

Event Time Altitude Azimuth Distance (km) Brightness Sun altitude
Rises 22:15:35 0° 333° (NNW) 2,785 6.3 -26.1°
Reaches altitude 10° 22:18:16 10° 349° (N) 1,869 5.0 -26.3°
Maximum altitude 22:21:31 21° 40° (NE) 1,273 3.4 -26.5°
Enters shadow 22:21:43 21° 45° (NE) 1,275 3.3 -26.6°
